[[{"header":{"parameterUnit":"m.s-1","parameterCategory":1,"la1":30.2991,"la2":30.254,"lo1":-89.0895,"lo2":-89.0444,"dy":0.0017,"dx":0.0017,"nx":28,"ny":28,"refTime":"2024-06-11T03:00:00:Z","depth":0,"parameterNumber":2,"parameterNumberName":"U-component_of_WINDS"},"data":[0,0,0,0,0,0,0,0,0,0,0,0,0,0,0,0,0,0,0,0,0,0,0,0,0,0,0,0,0,0,0,0,0,0,0,0,0,0,0,0,0,0,0,0,0,0,0,0,0,0,0,0,0,0,0,0,0,0,-0.4605,-0.4606,0,-0.4718,-0.472,-0.4721,-0.4856,-0.4858,-0.486,-0.4862,-0.4971,-0.4972,-0.4973,0,0,0,0,0,0,0,0,0,0,0,0,0,-0.4499,-0.45,-0.4605,-0.4606,-0.4608,-0.4718,-0.472,-0.4721,-0.4855,-0.4858,-0.4861,-0.4863,-0.4971,-0.4972,-0.4973,0,0,0,0,0,0,0,0,0,0,0,0,0,-0.4571,-0.45,-0.4604,-0.4688,-0.4697,-0.4718,-0.472,-0.4722,-0.4855,-0.4858,-0.4861,-0.4864,-0.497,-0.4972,-0.4973,-0.4919,0,0,-0.4977,-0.4978,0,0,0,0,0,0,0,0,-0.4567,-0.4575,-0.4674,-0.4682,-0.4692,-0.4776,-0.4723,-0.4787,-0.4854,-0.4794,-0.4862,-0.4866,-0.4903,-0.491,-0.4924,-0.4924,-0.4929,-0.4977,-0.4978,-0.4979,-0.4979,0,0,0,0,0,0,0,-0.4562,-0.4571,-0.4649,-0.4676,-0.4686,-0.4718,-0.4732,-0.4735,-0.4829,-0.48,-0.481,-0.4822,-0.4909,-0.4923,-0.4928,-0.493,-0.4977,-0.4979,-0.498,-0.498,-0.4892,-0.4889,0,0,0,0,0,0,-0.4545,-0.4566,-0.4646,-0.4653,-0.4636,-0.4717,-0.4733,-0.4746,-0.483,-0.4846,-0.4819,-0.4828,-0.4919,-0.4926,-0.4932,-0.4875,-0.4979,-0.498,-0.4981,-0.4895,-0.4892,-0.4888,0,0,0,0,0,0,-0.4542,-0.4551,-0.4641,-0.4612,-0.4626,-0.4716,-0.4729,-0.4746,-0.4761,-0.4845,-0.4861,-0.4817,-0.4922,-0.493,-0.4922,-0.4881,-0.4981,-0.4982,-0.4899,-0.4894,-0.489,-0.4759,0,0,0,0,0,0,-0.4539,-0.4549,-0.4531,-0.4611,-0.4627,-0.463,-0.4727,-0.4746,-0.4764,-0.4776,-0.4847,-0.4861,-0.4925,-0.4919,-0.4923,-0.4884,-0.4983,-0.4903,-0.4897,-0.4891,-0.4768,-0.4751,-0.4736,0,0,0,0,0,-0.4535,-0.4488,-0.4529,-0.4538,-0.4606,-0.4628,-0.4637,-0.4713,-0.476,-0.4741,-0.4796,-0.4859,-0.4885,-0.4917,-0.4923,-0.4884,-0.4906,-0.4899,-0.4892,-0.4775,-0.4754,-0.4737,0,0,0,0,0,0,-0.4397,-0.4499,-0.4547,-0.4525,-0.4567,-0.465,-0.4629,-0.4688,-0.4715,-0.4725,-0.4816,-0.4831,-0.4812,-0.4847,-0.4881,-0.4837,-0.4905,-0.4898,-0.4814,-0.4795,-0.4779,-0.477,-0.4984,0,0,0,0,0,-0.4365,-0.4375,-0.4464,-0.4435,-0.4455,-0.4538,-0.455,-0.4605,-0.4651,-0.4669,-0.4723,-0.4763,-0.4781,-0.479,-0.4811,-0.4774,-0.4791,-0.475,-0.4734,-0.4721,-0.4714,-0.4698,-0.468,-0.4865,-0.4865,-0.4865,0,0,-0.4296,-0.4354,-0.4355,-0.4409,-0.4449,-0.4456,-0.4552,-0.4555,-0.4561,-0.4669,-0.4665,-0.4706,-0.4757,-0.4735,-0.4727,-0.4763,-0.4667,-0.4712,-0.4701,-0.4701,-0.4688,-0.4671,-0.4655,-0.486,-0.4861,-0.4861,0,0,-0.4177,-0.4222,-0.4204,-0.4242,-0.4301,-0.4357,-0.4353,-0.4428,-0.446,-0.4459,-0.454,-0.4548,-0.4576,-0.4609,-0.463,-0.4525,-0.4585,-0.4529,-0.4446,-0.4429,-0.4415,-0.4402,-0.4364,-0.435,-0.4522,-0.4522,-0.4522,0,-0.4084,-0.4101,-0.4186,-0.4186,-0.4207,-0.4309,-0.429,-0.4322,-0.4384,-0.4395,-0.4436,-0.4475,-0.4516,-0.4503,-0.4478,-0.4492,-0.4489,-0.4521,-0.441,-0.4399,-0.4388,-0.4353,-0.4339,-0.4515,-0.4516,-0.4516,-0.4517,0,-0.3984,-0.3994,-0.3972,-0.4033,-0.4052,-0.4042,-0.4125,-0.4133,-0.4187,-0.4239,-0.4235,-0.429,-0.4323,-0.4325,-0.4376,-0.4319,-0.434,-0.4394,-0.4464,-0.4362,-0.433,-0.4318,-0.4505,-0.4507,-0.4509,-0.4511,0,0,-0.3778,-0.3888,-0.3879,-0.3908,-0.3982,-0.399,-0.3985,-0.4021,-0.4027,-0.4066,-0.4063,-0.4086,-0.4137,-0.416,-0.4217,-0.4202,-0.4115,-0.4258,-0.4261,-0.4229,-0.4056,-0.4013,-0.3997,-0.4156,-0.4154,-0.4152,-0.4051,0,-0.3671,-0.3671,-0.3749,-0.3726,-0.3736,-0.3833,-0.3829,-0.3873,-0.3921,-0.3935,-0.3988,-0.4003,-0.4069,-0.4084,-0.4074,-0.4128,-0.4082,-0.4137,-0.4152,-0.4152,-0.4135,-0.398,-0.3936,-0.3837,-0.4039,-0.4037,-0.4036,0,-0.3546,-0.3582,-0.356,-0.3637,-0.3644,-0.3638,-0.3678,-0.3692,-0.3743,-0.3779,-0.3806,-0.3872,-0.3871,-0.3938,-0.3937,-0.3973,-0.3984,-0.4012,-0.401,-0.4013,-0.4086,-0.3978,-0.3808,-0.3792,-0.4017,-0.4019,-0.402,0,-0.3398,-0.344,-0.3433,-0.3455,-0.3544,-0.3538,-0.3574,-0.3629,-0.3646,-0.368,-0.3692,-0.3724,-0.3742,-0.3764,-0.3836,-0.3879,-0.3827,-0.39,-0.3855,-0.3853,-0.3838,-0.3838,-0.3666,-0.3847,-0.3847,-0.3847,-0.3848,0,-0.327,-0.3252,-0.3368,-0.3364,-0.3347,-0.3437,-0.3417,-0.3463,-0.3511,-0.3516,-0.3602,-0.3604,-0.37,-0.3712,-0.3768,-0.3758,-0.3766,-0.3794,-0.3808,-0.3785,-0.3781,-0.3793,-0.3801,-0.3844,-0.3845,-0.3845,-0.3846,0,-0.31,-0.3178,-0.3177,-0.3262,-0.3283,-0.3267,-0.3339,-0.3338,-0.3392,-0.3397,-0.3403,-0.3488,-0.3508,-0.3582,-0.3619,-0.3657,-0.3628,-0.3658,-0.3611,-0.3621,-0.3571,-0.3574,-0.3399,-0.3381,-0.3574,-0.3572,-0.357,0,-0.3013,-0.3003,-0.3088,-0.3099,-0.3132,-0.3148,-0.3167,-0.3254,-0.327,-0.3329,-0.332,-0.3347,-0.3373,-0.3399,-0.3462,-0.3491,-0.3521,-0.3458,-0.3526,-0.3503,-0.3519,-0.3519,-0.3518,-0.3443,-0.344,-0.3438,-0.3437,0,-0.285,-0.2889,-0.2914,-0.2952,-0.2973,-0.3006,-0.3045,-0.3048,-0.3146,-0.3159,-0.3181,-0.3202,-0.3241,-0.3266,-0.3305,-0.3341,-0.3404,-0.3415,-0.3406,-0.3382,-0.3355,-0.3368,-0.357,-0.3418,-0.342,-0.3421,-0.3422,-0.3423,-0.2719,-0.2714,-0.2774,-0.2799,-0.2838,-0.2872,-0.2876,-0.2932,-0.2953,-0.2993,-0.3044,-0.3059,-0.3112,-0.3172,-0.3203,-0.3216,-0.3251,-0.3237,-0.3234,-0.3229,-0.3217,-0.3354,-0.3223,-0.3224,-0.3224,-0.3225,-0.3225,0,-0.2559,-0.2603,-0.2626,-0.2678,-0.2698,-0.2759,-0.2805,-0.2816,-0.283,-0.2875,-0.29,-0.2926,-0.2951,-0.3017,-0.3049,-0.3046,-0.3076,-0.3051,-0.3051,-0.3058,-0.3184,-0.3189,-0.3027,-0.3027,-0.3027,-0.3027,-0.3027,-0.3027,-0.2479,-0.2475,-0.2521,-0.2537,-0.2581,-0.2599,-0.262,-0.2652,-0.2688,-0.2714,-0.2737,-0.2781,-0.2834,-0.287,-0.2896,-0.2915,-0.2921,-0.2887,-0.2914,-0.3031,-0.3049,-0.3067,-0.3072,-0.2888,-0.2888,-0.2788,-0.2787,-0.2786]},{"header":{"parameterUnit":"m.s-1","parameterCategory":1,"la1":30.2991,"la2":30.254,"lo1":-89.0895,"lo2":-89.0444,"dy":0.0017,"dx":0.0017,"nx":28,"ny":28,"refTime":"2024-06-11T03:00:00:Z","depth":0,"parameterNumber":3,"parameterNumberName":"V-component_of_WINDS"},"data":[0,0,0,0,0,0,0,0,0,0,0,0,0,0,0,0,0,0,0,0,0,0,0,0,0,0,0,0,0,0,0,0,0,0,0,0,0,0,0,0,0,0,0,0,0,0,0,0,0,0,0,0,0,0,0,0,0,0,1.319,1.3189,0,1.3094,1.3093,1.3092,1.2991,1.299,1.2988,1.2987,1.2884,1.2882,1.2881,0,0,0,0,0,0,0,0,0,0,0,0,0,1.3279,1.3278,1.319,1.3188,1.3187,1.3095,1.3093,1.3092,1.2992,1.299,1.2988,1.2987,1.2884,1.2883,1.2881,0,0,0,0,0,0,0,0,0,0,0,0,0,1.3218,1.3278,1.319,1.3126,1.3119,1.3095,1.3093,1.3092,1.2992,1.299,1.2988,1.2986,1.2885,1.2883,1.2881,1.2909,0,0,1.2874,1.2873,0,0,0,0,0,0,0,0,1.3221,1.3215,1.3137,1.313,1.3123,1.3053,1.3087,1.303,1.2992,1.304,1.2987,1.2985,1.2941,1.2934,1.2921,1.2905,1.29,1.2874,1.2873,1.2872,1.2871,0,0,0,0,0,0,0,1.3226,1.3218,1.3152,1.3136,1.3127,1.3101,1.309,1.3076,1.3003,1.3036,1.3028,1.3019,1.2937,1.2923,1.2918,1.2899,1.2874,1.2872,1.2871,1.287,1.2899,1.2901,0,0,0,0,0,0,1.324,1.3222,1.3155,1.3149,1.3168,1.3101,1.3088,1.3077,1.3003,1.299,1.3021,1.3014,1.2928,1.292,1.2914,1.2942,1.2872,1.287,1.2868,1.2897,1.29,1.2902,0,0,0,0,0,0,1.3243,1.3235,1.3159,1.3184,1.3172,1.3101,1.309,1.3077,1.3063,1.2992,1.2978,1.302,1.2926,1.2917,1.2911,1.2937,1.2869,1.2867,1.2895,1.2898,1.2901,1.2999,0,0,0,0,0,0,1.3246,1.3237,1.3248,1.3185,1.3171,1.316,1.3091,1.3076,1.306,1.3051,1.2988,1.2975,1.2924,1.2915,1.2909,1.2933,1.2865,1.2892,1.2896,1.29,1.2993,1.3005,1.3015,0,0,0,0,0,1.3249,1.3279,1.3249,1.3242,1.3184,1.3162,1.3153,1.3095,1.3062,1.3072,1.3027,1.2977,1.2935,1.2916,1.2908,1.2931,1.289,1.2895,1.29,1.2988,1.3003,1.3015,0,0,0,0,0,0,1.3345,1.3269,1.3236,1.3246,1.3211,1.3145,1.3156,1.3113,1.3085,1.3077,1.3004,1.2991,1.2994,1.2962,1.2941,1.2954,1.2906,1.2909,1.2975,1.2988,1.2999,1.3007,1.2863,0,0,0,0,0,1.3368,1.3358,1.3291,1.3306,1.329,1.3227,1.3214,1.3173,1.3133,1.3117,1.3071,1.3033,1.3011,1.2998,1.2974,1.2988,1.2972,1.3,1.3011,1.3021,1.3024,1.3028,1.3039,1.2918,1.2918,1.2917,0,0,1.3414,1.3371,1.3368,1.3324,1.3292,1.3282,1.3215,1.3206,1.3197,1.3115,1.3108,1.3073,1.3025,1.303,1.3029,1.3003,1.3054,1.3027,1.3035,1.3033,1.3034,1.3045,1.3056,1.2921,1.292,1.292,0,0,1.3492,1.3459,1.3468,1.3438,1.3391,1.3349,1.3351,1.3291,1.3265,1.3257,1.3195,1.3182,1.3146,1.3115,1.3094,1.3161,1.3114,1.3155,1.3212,1.3217,1.3227,1.3235,1.3257,1.3267,1.3159,1.3159,1.3159,0,1.3554,1.3537,1.3477,1.3473,1.3455,1.3382,1.339,1.3363,1.331,1.3298,1.327,1.3223,1.3186,1.3182,1.3199,1.3184,1.3183,1.3161,1.3231,1.3238,1.3245,1.3265,1.3274,1.3164,1.3164,1.3163,1.3163,0,1.3616,1.3605,1.3618,1.3571,1.3554,1.3556,1.3494,1.3484,1.3444,1.3404,1.3395,1.3348,1.3313,1.3309,1.3269,1.3299,1.3284,1.3245,1.3194,1.3263,1.3281,1.3288,1.3172,1.317,1.3168,1.3167,0,0,1.3751,1.3671,1.3677,1.3655,1.3598,1.3588,1.3586,1.3553,1.3546,1.3512,1.3507,1.3478,1.3441,1.3418,1.3374,1.3378,1.3433,1.3337,1.3335,1.3356,1.3461,1.3491,1.3502,1.3402,1.3403,1.3404,1.3465,0,1.3818,1.3812,1.3758,1.3766,1.3755,1.3686,1.3684,1.3648,1.3611,1.3594,1.3551,1.3532,1.3485,1.3471,1.3472,1.3426,1.3453,1.3421,1.3394,1.3394,1.3408,1.3511,1.3542,1.3602,1.3472,1.3473,1.3474,0,1.3896,1.3869,1.3877,1.3821,1.3814,1.3813,1.3779,1.3765,1.3722,1.3694,1.3669,1.362,1.3611,1.3565,1.3552,1.3531,1.3517,1.3493,1.3494,1.3488,1.3438,1.3507,1.362,1.3629,1.3485,1.3484,1.3483,0,1.3992,1.3958,1.3958,1.3941,1.3876,1.3877,1.3849,1.3805,1.3789,1.3758,1.3747,1.3715,1.3698,1.3673,1.3616,1.3588,1.3609,1.3558,1.3583,1.3585,1.359,1.359,1.3701,1.3583,1.3583,1.3583,1.3583,0,1.4073,1.408,1.4001,1.4001,1.4006,1.3943,1.395,1.3915,1.3877,1.3867,1.3806,1.3798,1.3723,1.3706,1.3661,1.3656,1.3649,1.3624,1.3612,1.363,1.3633,1.3618,1.3612,1.3585,1.3584,1.3584,1.3584,0,1.4181,1.4128,1.4124,1.4063,1.4048,1.4055,1.4001,1.3998,1.3957,1.3946,1.3939,1.3875,1.3851,1.3792,1.3753,1.3723,1.373,1.3707,1.3745,1.3737,1.3766,1.3764,1.3871,1.3881,1.3758,1.3759,1.376,0,1.4235,1.424,1.418,1.417,1.4146,1.4131,1.4115,1.4053,1.4038,1.399,1.3992,1.3965,1.394,1.3905,1.3853,1.3823,1.3799,1.3838,1.3793,1.3811,1.3798,1.3798,1.3798,1.3848,1.385,1.3851,1.3852,0,1.4337,1.4311,1.4291,1.4263,1.4246,1.422,1.419,1.4185,1.4115,1.4102,1.4078,1.4059,1.402,1.3993,1.3955,1.3923,1.3876,1.3867,1.3871,1.3888,1.391,1.3898,1.3771,1.3864,1.3863,1.3862,1.3862,1.3861,1.4419,1.442,1.4378,1.4358,1.433,1.4303,1.4297,1.4256,1.4237,1.4202,1.4166,1.4146,1.4102,1.4046,1.4019,1.4001,1.3976,1.3983,1.3984,1.3986,1.3994,1.3914,1.3994,1.3993,1.3993,1.3992,1.3992,0,1.4517,1.4487,1.447,1.4431,1.4415,1.4374,1.4339,1.4328,1.4312,1.4277,1.4254,1.4227,1.42,1.4147,1.4115,1.4111,1.4088,1.4104,1.4103,1.4097,1.4018,1.4017,1.4123,1.4123,1.4123,1.4123,1.4123,1.4123,1.4566,1.4565,1.4534,1.4518,1.4487,1.4469,1.4452,1.4427,1.4399,1.4372,1.4351,1.4317,1.4273,1.4238,1.4211,1.4196,1.4186,1.421,1.4187,1.4115,1.4102,1.409,1.4089,1.4208,1.4209,1.4267,1.4268,1.4268]}]]